Flag for Slovakia Weather past 2 weeks in Košice, Slovakia

Now
59 °F

Fog.


Feels Like: 59 °F
Forecast: 45 / 56 °F
Wind: 2 mph from South

Location: Kosice - Barca

Current Time: Sep 22, 2014 at 2:54:28 AM

Latest Report: Sep 22, 2014 at 2:00 AM


Visibility: 3 mi

Pressure: 29.77 "Hg

Humidity: 100%

Dew point: 59 °F

Location of KošiceLocation

Historic Weather in Košice — Graph

°F

Košice temperature yesterday

Maximum temperature yesterday: 68 °F (at 2:30 PM)
Minimum temperature yesterday: 57 °F (at 2:30 AM)
Average temperature yesterday: 63 °F

Past Weeks' High & Low Weather Summary

 TemperatureHumidityPressure
High81 °F (Sep 9, 4:00 PM)100% (Sep 7, 2:30 AM)30.18 "Hg (Sep 7, 2:30 AM)
Low48 °F (Sep 19, 6:30 AM)39% (Sep 9, 4:30 PM)29.77 "Hg (Sep 22, 12:30 AM)
Average64 °F79%30.02 "Hg
* Reported Sep 7 1:00 AM — Sep 22 1:30 AM, Košice, Weather by CustomWeather, © 2014

Note: Actual official high and low records may vary slightly from our data, if they occured in-between our weather recording intervals... More about our weather records

Advertising

Košice weather history for previous 24 hours

 ConditionsComfort  
Time TempWeatherWind HumidityBarometerVisibility
1:30 AM
Sep 22
61 °FFog.1 mph94%29.77 "Hg3 mi
1:00 AM61 °FPartly cloudy.3 mph94%29.77 "Hg1 mi
12:30 AM59 °FPassing clouds.3 mph100%29.77 "Hg1 mi
12:00 AM61 °FPassing clouds.2 mph94%29.80 "Hg3 mi
11:30 PM
Sep 21
61 °FFog.2 mph100%29.80 "Hg3 mi
11:00 PM63 °FPassing clouds.3 mph94%29.80 "Hg4 mi
10:30 PM63 °FPassing clouds.6 mph94%29.80 "Hg4 mi
10:00 PM63 °FPassing clouds.3 mph100%29.80 "Hg6 mi
9:30 PM63 °FSprinkles. Partly cloudy.6 mph100%29.83 "Hg4 mi
9:00 PM63 °FRain showers. Partly cloudy.6 mph100%29.83 "Hg4 mi
8:30 PM63 °FRain showers. Partly cloudy.6 mph100%29.83 "Hg4 mi
8:00 PM63 °FSprinkles. Partly cloudy.1 mph100%29.83 "Hg4 mi
7:30 PM64 °FSprinkles. Broken clouds.3 mph94%29.80 "Hg4 mi
7:00 PM64 °FScattered clouds.5 mph94%29.80 "Hg4 mi
6:30 PM64 °FScattered clouds.2 mph94%29.80 "HgN/A
6:00 PM66 °FSprinkles. Scattered clouds.1 mph88%29.80 "HgN/A
5:30 PM66 °FThundershowers. Broken clouds.2 mph88%29.83 "HgN/A
5:00 PM66 °FThundershowers. Broken clouds.5 mph88%29.83 "HgN/A
4:30 PM66 °FPartly sunny.2 mph88%29.83 "HgN/A
4:00 PM66 °FScattered clouds.2 mph88%29.83 "HgN/A
3:30 PM68 °FScattered clouds.3 mph83%29.83 "HgN/A
3:00 PM68 °FSprinkles. Broken clouds.2 mph83%29.83 "Hg6 mi
2:30 PM68 °FSprinkles. Partly sunny.5 mph83%29.86 "Hg6 mi
2:00 PM66 °FBroken clouds.5 mph88%29.86 "Hg5 mi
1:30 PM64 °FBroken clouds.5 mph88%29.86 "Hg4 mi
1:00 PM66 °FPartly sunny.5 mph88%29.86 "Hg4 mi
12:30 PM64 °FLow clouds.2 mph88%29.86 "Hg4 mi
12:00 PM64 °FLow clouds.2 mph88%29.86 "Hg4 mi
11:30 AM64 °FFog.3 mph88%29.86 "Hg3 mi
11:00 AM64 °FLow clouds.3 mph88%29.89 "Hg5 mi
10:30 AM64 °FPartly sunny.2 mph88%29.89 "Hg5 mi
10:00 AM63 °FPartly sunny.1 mph94%29.89 "Hg4 mi
9:30 AM63 °FPartly sunny.2 mph94%29.89 "Hg4 mi
9:00 AM63 °FPartly sunny.5 mph94%29.89 "Hg4 mi
8:30 AM61 °FFog.3 mph100%29.89 "Hg3 mi
8:00 AM61 °FFog.2 mph94%29.89 "Hg2 mi
7:30 AM61 °FFog.2 mph94%29.89 "Hg2 mi
7:00 AM61 °FLight rain. Fog.3 mph94%29.89 "Hg2 mi
6:30 AM61 °FLight rain. Fog.2 mph94%29.89 "Hg3 mi
6:00 AM59 °FLight rain. Passing clouds.3 mph100%29.89 "Hg4 mi
5:30 AM59 °FPassing clouds.3 mph100%29.89 "Hg4 mi
5:00 AM59 °FPassing clouds.2 mph100%29.89 "Hg4 mi
4:30 AM59 °FPassing clouds.2 mph100%29.92 "Hg4 mi
4:00 AM59 °FPassing clouds.3 mph100%29.92 "Hg3 mi
3:30 AM59 °FPassing clouds.2 mph94%29.92 "Hg3 mi
3:00 AM57 °FPassing clouds.2 mph100%29.92 "Hg4 mi
2:30 AM57 °FPassing clouds.2 mph94%29.92 "Hg3 mi
2:00 AM59 °FSnow. Passing clouds.2 mph94%29.92 "Hg2 mi
Weather by CustomWeather, © 2014

See weather overviewHow to use our weather pages